[[{"header":{"parameterUnit":"m.s-1","parameterCategory":1,"la1":30.2991,"la2":30.254,"lo1":-89.0895,"lo2":-89.0444,"dy":0.0017,"dx":0.0017,"nx":28,"ny":28,"refTime":"2024-02-23T09:00:00:Z","depth":0,"parameterNumber":2,"parameterNumberName":"U-component_of_WINDS"},"data":[0,0,0,0,0,0,0,0,0,0,0,0,0,0,0,0,0,0,0,0,0,0,0,0,0,0,0,0,0,0,0,0,0,0,0,0,0,0,0,0,0,0,0,0,0,0,0,0,0,0,0,0,0,0,0,0,0,0,2.4198,2.4199,0,2.4283,2.4284,2.4285,2.4283,2.4281,2.428,2.4279,2.4369,2.4372,2.4375,0,0,0,0,0,0,0,0,0,0,0,0,0,2.4037,2.404,2.4198,2.4199,2.42,2.4283,2.4284,2.4286,2.4283,2.4281,2.428,2.4279,2.4367,2.4372,2.4376,0,0,0,0,0,0,0,0,0,0,0,0,0,2.4113,2.4041,2.4198,2.4209,2.4211,2.4283,2.4284,2.4286,2.4283,2.4281,2.428,2.4278,2.4366,2.4371,2.4376,2.4444,0,0,2.4392,2.4394,0,0,0,0,0,0,0,0,2.4108,2.4119,2.4206,2.4208,2.421,2.4271,2.426,2.4339,2.4284,2.4256,2.4279,2.4277,2.4338,2.4345,2.4365,2.4448,2.4452,2.4393,2.4396,2.4398,2.44,0,0,0,0,0,0,0,2.4103,2.4115,2.4232,2.4207,2.421,2.4211,2.422,2.4275,2.4306,2.4258,2.4258,2.4268,2.4338,2.436,2.4367,2.4453,2.4393,2.4397,2.44,2.4402,2.4599,2.4601,0,0,0,0,0,0,2.4095,2.4111,2.4229,2.4234,2.4154,2.4215,2.4225,2.4253,2.4305,2.4311,2.4269,2.4268,2.4352,2.4361,2.437,2.4455,2.4398,2.4403,2.4406,2.4597,2.46,2.4602,0,0,0,0,0,0,2.4092,2.4106,2.4226,2.4173,2.4188,2.422,2.4251,2.4256,2.4277,2.4314,2.4319,2.4286,2.4351,2.4363,2.4426,2.4458,2.4405,2.441,2.4595,2.4598,2.4601,2.4623,0,0,0,0,0,0,2.4087,2.4105,2.413,2.4173,2.4191,2.4279,2.4253,2.4259,2.4286,2.4284,2.433,2.4336,2.435,2.4418,2.4431,2.4464,2.4414,2.4592,2.4596,2.46,2.462,2.4627,2.4633,0,0,0,0,0,2.4081,2.4132,2.4131,2.4145,2.4223,2.4281,2.4291,2.4306,2.4288,2.4315,2.4339,2.4335,2.4452,2.4425,2.4439,2.4474,2.459,2.4595,2.46,2.4617,2.4625,2.4632,0,0,0,0,0,0,2.4092,2.4138,2.4137,2.4203,2.4238,2.428,2.4314,2.4314,2.4355,2.4352,2.4369,2.4379,2.4443,2.4465,2.4434,2.4544,2.4519,2.4527,2.4527,2.4536,2.4542,2.4536,2.4418,0,0,0,0,0,2.4102,2.4144,2.4183,2.4238,2.4255,2.4282,2.4308,2.4316,2.4353,2.4368,2.4396,2.4433,2.4479,2.4508,2.4552,2.4623,2.4634,2.4654,2.466,2.4665,2.4672,2.4714,2.4724,2.4618,2.4618,2.4617,0,0,2.4123,2.4154,2.4179,2.4241,2.4269,2.4314,2.4294,2.4342,2.4376,2.4375,2.4437,2.446,2.4502,2.457,2.4602,2.459,2.4704,2.4671,2.4675,2.468,2.472,2.473,2.4739,2.4621,2.462,2.462,0,0,2.4185,2.4211,2.4261,2.429,2.4333,2.435,2.4362,2.4405,2.442,2.4482,2.4483,2.4524,2.4601,2.4632,2.4658,2.4734,2.4733,2.4748,2.4782,2.4822,2.4831,2.4838,2.4867,2.4877,2.4755,2.4755,2.4755,0,2.4206,2.4273,2.4287,2.4336,2.4364,2.4365,2.4417,2.4444,2.4499,2.4519,2.4505,2.4604,2.4632,2.4709,2.4728,2.4748,2.4764,2.4743,2.4828,2.4836,2.4843,2.4871,2.4882,2.4756,2.4756,2.4756,2.4756,0,2.4298,2.4345,2.438,2.4433,2.4465,2.4515,2.4538,2.4569,2.4575,2.4594,2.4659,2.4694,2.4745,2.4764,2.477,2.4842,2.4834,2.4824,2.48,2.4855,2.4882,2.4892,2.4759,2.4758,2.4758,2.4757,0,0,2.4368,2.443,2.4442,2.4468,2.4516,2.4553,2.4604,2.4654,2.4681,2.472,2.4764,2.483,2.4822,2.4852,2.4862,2.4897,2.4958,2.4883,2.4884,2.4897,2.5042,2.505,2.5062,2.4957,2.4959,2.4961,2.5039,0,2.4436,2.4526,2.4541,2.462,2.4665,2.4668,2.4713,2.4748,2.4768,2.481,2.4832,2.488,2.4864,2.4882,2.4917,2.4943,2.4987,2.4937,2.5,2.5002,2.4991,2.5076,2.5084,2.5156,2.5049,2.5051,2.5052,0,2.4528,2.4569,2.4653,2.4697,2.4716,2.4756,2.4804,2.4844,2.4885,2.4897,2.4931,2.4937,2.4992,2.4965,2.5042,2.5008,2.5035,2.5052,2.5055,2.5062,2.5031,2.5087,2.5179,2.5191,2.5068,2.5067,2.5066,0,2.4573,2.4649,2.471,2.4731,2.4783,2.4812,2.4835,2.4874,2.4904,2.4947,2.4967,2.5016,2.5043,2.5081,2.5101,2.5079,2.5178,2.5152,2.5192,2.5191,2.5213,2.5211,2.5312,2.5228,2.5228,2.5227,2.5227,0,2.4648,2.47,2.4731,2.4768,2.4827,2.4844,2.4903,2.4925,2.4961,2.5004,2.5009,2.505,2.5073,2.5118,2.5134,2.5197,2.5209,2.5222,2.5225,2.5222,2.522,2.524,2.5237,2.523,2.523,2.5229,2.5229,0,2.4709,2.4731,2.4798,2.4842,2.4855,2.4897,2.4935,2.4973,2.4993,2.5048,2.5062,2.5094,2.5147,2.5171,2.5236,2.5247,2.532,2.5319,2.5306,2.5307,2.5346,2.5343,2.5465,2.5482,2.5385,2.5386,2.5386,0,2.4756,2.4796,2.4845,2.4874,2.4898,2.4945,2.4976,2.4995,2.5027,2.5078,2.511,2.5163,2.5207,2.5292,2.5322,2.5373,2.5375,2.5414,2.5382,2.5378,2.5378,2.5375,2.5381,2.542,2.5421,2.5422,2.5422,0,2.4838,2.4848,2.4891,2.494,2.4977,2.5016,2.5055,2.5078,2.5104,2.5141,2.5195,2.5229,2.5296,2.535,2.5403,2.5428,2.5431,2.5432,2.5444,2.5441,2.5433,2.544,2.5323,2.5429,2.5429,2.5428,2.5428,2.5427,2.4894,2.4931,2.4972,2.5021,2.5052,2.5089,2.5127,2.5152,2.5197,2.5253,2.5262,2.5321,2.5363,2.5434,2.5462,2.5509,2.55,2.5517,2.5522,2.5526,2.5529,2.5424,2.5519,2.5519,2.5519,2.5518,2.5518,0,2.4978,2.5005,2.505,2.5104,2.5144,2.5142,2.5185,2.5218,2.527,2.5308,2.5351,2.5415,2.5468,2.5502,2.5556,2.5587,2.559,2.5601,2.5599,2.5606,2.5534,2.5518,2.5598,2.5598,2.5598,2.5598,2.5598,2.5598,2.5026,2.5089,2.5104,2.5182,2.5209,2.5266,2.5291,2.5325,2.5357,2.5427,2.5471,2.5493,2.5531,2.5588,2.5637,2.5646,2.5666,2.5678,2.5687,2.5619,2.561,2.5603,2.5589,2.5681,2.5682,2.5755,2.5756,2.5756]},{"header":{"parameterUnit":"m.s-1","parameterCategory":1,"la1":30.2991,"la2":30.254,"lo1":-89.0895,"lo2":-89.0444,"dy":0.0017,"dx":0.0017,"nx":28,"ny":28,"refTime":"2024-02-23T09:00:00:Z","depth":0,"parameterNumber":3,"parameterNumberName":"V-component_of_WINDS"},"data":[0,0,0,0,0,0,0,0,0,0,0,0,0,0,0,0,0,0,0,0,0,0,0,0,0,0,0,0,0,0,0,0,0,0,0,0,0,0,0,0,0,0,0,0,0,0,0,0,0,0,0,0,0,0,0,0,0,0,-3.7193,-3.7195,0,-3.7328,-3.7329,-3.7331,-3.7373,-3.7372,-3.7371,-3.7371,-3.751,-3.7514,-3.7518,0,0,0,0,0,0,0,0,0,0,0,0,0,-3.6976,-3.6979,-3.7193,-3.7195,-3.7197,-3.7327,-3.7329,-3.7331,-3.7373,-3.7372,-3.7371,-3.737,-3.7508,-3.7513,-3.7518,0,0,0,0,0,0,0,0,0,0,0,0,0,-3.7086,-3.6981,-3.7193,-3.7233,-3.7238,-3.7327,-3.7329,-3.7332,-3.7373,-3.7372,-3.7371,-3.737,-3.7506,-3.7513,-3.7519,-3.7578,0,0,-3.7539,-3.7542,0,0,0,0,0,0,0,0,-3.708,-3.7094,-3.7226,-3.7231,-3.7236,-3.7332,-3.7304,-3.7414,-3.7373,-3.7322,-3.7371,-3.737,-3.7452,-3.7462,-3.749,-3.7585,-3.7591,-3.7539,-3.7543,-3.7546,-3.7548,0,0,0,0,0,0,0,-3.7072,-3.7089,-3.7247,-3.7227,-3.7234,-3.7245,-3.726,-3.7325,-3.739,-3.7326,-3.733,-3.7345,-3.7454,-3.7483,-3.7493,-3.7593,-3.7539,-3.7545,-3.7549,-3.7551,-3.7745,-3.7747,0,0,0,0,0,0,-3.7057,-3.7082,-3.7242,-3.7251,-3.7154,-3.725,-3.7266,-3.7303,-3.739,-3.7402,-3.7345,-3.7346,-3.7473,-3.7486,-3.7498,-3.7575,-3.7546,-3.7552,-3.7556,-3.7744,-3.7746,-3.7747,0,0,0,0,0,0,-3.7052,-3.7071,-3.7237,-3.7167,-3.7189,-3.7255,-3.7295,-3.7306,-3.7335,-3.7404,-3.7417,-3.7363,-3.7473,-3.7489,-3.7559,-3.758,-3.7555,-3.7561,-3.7743,-3.7745,-3.7746,-3.7727,0,0,0,0,0,0,-3.7046,-3.7069,-3.7092,-3.7167,-3.7193,-3.7294,-3.7296,-3.7309,-3.7346,-3.7348,-3.7424,-3.7436,-3.7473,-3.7549,-3.7565,-3.7589,-3.7566,-3.7741,-3.7744,-3.7746,-3.7726,-3.7728,-3.773,0,0,0,0,0,-3.7038,-3.7081,-3.7092,-3.7112,-3.7222,-3.7295,-3.731,-3.7351,-3.7347,-3.7371,-3.7416,-3.7433,-3.7575,-3.7555,-3.7574,-3.76,-3.774,-3.7743,-3.7746,-3.7725,-3.7728,-3.773,0,0,0,0,0,0,-3.7006,-3.7091,-3.7105,-3.7173,-3.7227,-3.7302,-3.7333,-3.7352,-3.7408,-3.7408,-3.7458,-3.7475,-3.754,-3.7577,-3.7554,-3.7663,-3.7658,-3.7665,-3.7637,-3.764,-3.7641,-3.7631,-3.7571,0,0,0,0,0,-3.7006,-3.7058,-3.713,-3.7183,-3.7209,-3.7266,-3.73,-3.7327,-3.7385,-3.7408,-3.7457,-3.7513,-3.757,-3.7607,-3.7663,-3.7732,-3.775,-3.7759,-3.7761,-3.7762,-3.7768,-3.7808,-3.7814,-3.7757,-3.7757,-3.7757,0,0,-3.7009,-3.7062,-3.7091,-3.7178,-3.7223,-3.7276,-3.7285,-3.7341,-3.7381,-3.7416,-3.7485,-3.7523,-3.7589,-3.7658,-3.7692,-3.7691,-3.7787,-3.7766,-3.7766,-3.7771,-3.7812,-3.7817,-3.7822,-3.7759,-3.7758,-3.7758,0,0,-3.704,-3.7084,-3.7135,-3.7179,-3.7247,-3.7285,-3.7296,-3.737,-3.7397,-3.7466,-3.7494,-3.7543,-3.764,-3.7687,-3.7723,-3.7773,-3.7792,-3.779,-3.78,-3.7839,-3.7844,-3.7848,-3.7868,-3.7874,-3.7795,-3.7795,-3.7795,0,-3.7034,-3.7115,-3.7158,-3.7213,-3.7251,-3.7285,-3.7337,-3.7379,-3.7461,-3.7487,-3.7485,-3.7609,-3.7655,-3.7737,-3.775,-3.7777,-3.7794,-3.7782,-3.784,-3.7844,-3.7849,-3.7868,-3.7875,-3.7795,-3.7795,-3.7795,-3.7795,0,-3.7105,-3.7161,-3.7193,-3.7272,-3.7314,-3.7367,-3.7419,-3.7457,-3.7481,-3.752,-3.7591,-3.7648,-3.7718,-3.7739,-3.7763,-3.7825,-3.7823,-3.783,-3.7826,-3.7853,-3.7872,-3.788,-3.7794,-3.7794,-3.7794,-3.7794,0,0,-3.7119,-3.7222,-3.7233,-3.727,-3.7348,-3.7392,-3.7448,-3.7515,-3.7547,-3.7603,-3.7652,-3.7734,-3.7742,-3.7782,-3.7812,-3.7847,-3.7885,-3.785,-3.7852,-3.7855,-3.7959,-3.7953,-3.7961,-3.7898,-3.7899,-3.7901,-3.7953,0,-3.7161,-3.726,-3.7302,-3.7383,-3.7436,-3.747,-3.7518,-3.7572,-3.761,-3.7661,-3.7703,-3.7761,-3.7766,-3.7791,-3.7827,-3.7873,-3.7907,-3.7869,-3.7945,-3.7947,-3.7928,-3.7971,-3.7965,-3.8012,-3.7961,-3.7962,-3.7963,0,-3.7223,-3.7279,-3.7365,-3.7438,-3.7462,-3.7505,-3.7571,-3.7619,-3.7682,-3.7707,-3.7753,-3.7782,-3.7843,-3.7835,-3.792,-3.7894,-3.7927,-3.7955,-3.7958,-3.7967,-3.7957,-3.7982,-3.8028,-3.8035,-3.7975,-3.7974,-3.7973,0,-3.7225,-3.7323,-3.7388,-3.7419,-3.7505,-3.7534,-3.7572,-3.7633,-3.7672,-3.773,-3.7756,-3.7821,-3.7856,-3.7906,-3.7952,-3.7942,-3.8034,-3.8029,-3.8057,-3.8056,-3.8075,-3.8074,-3.8128,-3.8095,-3.8095,-3.8095,-3.8095,0,-3.7268,-3.732,-3.7391,-3.743,-3.749,-3.7538,-3.7596,-3.7636,-3.769,-3.7739,-3.7773,-3.7819,-3.7876,-3.7929,-3.7966,-3.8032,-3.8047,-3.807,-3.8079,-3.8068,-3.8065,-3.8091,-3.8089,-3.8097,-3.8097,-3.8096,-3.8096,0,-3.7281,-3.7331,-3.7404,-3.748,-3.75,-3.7541,-3.7607,-3.7647,-3.7687,-3.7749,-3.7767,-3.783,-3.7894,-3.7945,-3.8029,-3.8054,-3.8124,-3.8133,-3.8103,-3.8107,-3.8133,-3.8131,-3.8207,-3.822,-3.8177,-3.8178,-3.8178,0,-3.7306,-3.7346,-3.7427,-3.7462,-3.7499,-3.7556,-3.7596,-3.7645,-3.7685,-3.776,-3.7792,-3.7859,-3.7916,-3.8018,-3.8072,-3.8137,-3.8149,-3.8171,-3.8159,-3.8146,-3.8151,-3.8148,-3.8153,-3.8173,-3.8173,-3.8173,-3.8173,0,-3.7344,-3.7367,-3.7423,-3.7488,-3.7535,-3.7588,-3.7643,-3.767,-3.773,-3.7774,-3.784,-3.7884,-3.797,-3.8037,-3.8108,-3.8148,-3.8171,-3.8177,-3.8187,-3.8176,-3.8157,-3.8169,-3.8108,-3.8175,-3.8174,-3.8174,-3.8174,-3.8174,-3.7364,-3.7403,-3.7466,-3.7528,-3.7574,-3.7625,-3.7667,-3.7713,-3.7769,-3.7843,-3.7869,-3.7938,-3.8001,-3.8099,-3.814,-3.8195,-3.8196,-3.8211,-3.8215,-3.8218,-3.8217,-3.8147,-3.8208,-3.8208,-3.8208,-3.8208,-3.8208,0,-3.7406,-3.7448,-3.7505,-3.758,-3.7629,-3.7646,-3.7708,-3.7748,-3.7808,-3.7865,-3.792,-3.7998,-3.8063,-3.8123,-3.8191,-3.8224,-3.8237,-3.8241,-3.8239,-3.8248,-3.8211,-3.8196,-3.823,-3.823,-3.823,-3.823,-3.823,-3.823,-3.7433,-3.7499,-3.753,-3.762,-3.7663,-3.773,-3.7764,-3.7812,-3.7858,-3.7943,-3.7997,-3.8035,-3.8094,-3.8167,-3.8229,-3.8245,-3.8269,-3.827,-3.8289,-3.8253,-3.8251,-3.8248,-3.8234,-3.8275,-3.8275,-3.8322,-3.8322,-3.8322]}]]